Hourly Weather Roundup
Issued by NWS Central Illinois

Home | Current Version | Previous Version | Text Only | Print | Product List | Glossary On
Versions: 1 2 3 4 5 6 7 8 9 10 11 12 13 14 15 16 17 18 19 20 21 22 23 24 25 26 27 28 29 30 31 32 33 34 35 36 37 38 39 40 41 42 43 44 45 46 47 48 49 50
000
NZUS43 KILX 272010
HWRILX

AREA WEATHER ROUNDUP
NATIONAL WEATHER SERVICE, LINCOLN IL
200 PM CST THU NOV 27 2014


CITY           SKY/WX    TMP DP  RH WIND       PRES   REMARKS
BLOOMINGTON    FLURRIES  25  18  74 NW14      30.39R WCI  13
CHAMPAIGN      LGT SNOW  27  24  89 W17       30.38S VSB 3/4 WCI  14
DECATUR        CLOUDY    27  21  78 W15       30.41S HAZE    WCI  15
FLORA          MOSUNNY   29  22  74 NW9       30.44S WCI  21
GALESBURG      SUNNY     19  13  76 W14G20    30.44R WCI   6
JACKSONVILLE   CLOUDY    27  18  68 NW12      30.45F WCI  17
LACON          MOSUNNY   24  15  68 W14G20    30.41R WCI  12
LAWRENCEVILLE  CLOUDY    30  22  72 NW17      30.42S WCI  18
LITCHFIELD     CLOUDY    28  18  65 W13       30.44S WCI  17
$$


CITY           SKY/WX    TMP DP  RH WIND       PRES   REMARKS
LINCOLN        CLOUDY    26  19  76 W8        30.44S WCI  18
MACOMB         SUNNY     20  12  71 NW12      30.48S WCI   8
MATTOON        CLOUDY    28  22  78 W15       30.39S WCI  16
MT CARMEL AP   CLOUDY    32  23  69 NW12G20   30.43R WCI  23
OLNEY-NOBLE AP CLOUDY    28  23  80 NW6       30.43F WCI  22
PARIS          LGT SNOW  29  24  82 W14       30.38F WCI  19
PEORIA         CLOUDY    25  16  68 W12       30.42S WCI  14
PONTIAC        FLURRIES  27  21  78 W16       30.39R WCI  14
RANTOUL        LGT SNOW  29  24  81 W12       30.37S WCI  19
ROBINSON       LGT SNOW  29  24  81 W10       30.42S WCI  20
SPRINGFIELD    FLURRIES  26  18  71 NW17G23   30.45R WCI  13
TAYLORVILLE    MOSUNNY   27  19  74 W14       30.44S WCI  15
$$

...REGIONAL REPORTS...


CITY           SKY/WX    TMP DP  RH WIND       PRES   REMARKS
CHICAGO O`HARE PTSUNNY   24  14  65 NW16      30.34S WCI  11
KANKAKEE       CLOUDY   N/A N/A N/A NW14      30.36S
MOLINE         SUNNY     21   6  52 NW14      30.43S WCI   8
MOUNT VERNON   CLOUDY    30  21  69 CALM      30.45S
PITTSFIELD     SUNNY     28  18  66 W8        30.46F WCI  20
QUINCY         MOSUNNY   23  15  71 NW9       30.46F WCI  13
ROCKFORD       FLURRIES  23  12  62 NW10      30.38S WCI  12
$$


CITY           SKY/WX    TMP DP  RH WIND       PRES   REMARKS
BURLINGTON     SUNNY     17   4  56 NW13      30.47S WCI   4
CEDAR RAPIDS   SUNNY     14   5  67 W13       30.43F WCI   0
DES MOINES     PTSUNNY   14  -2  49 CALM      30.47F
KIRKSVILLE     MOSUNNY   27  15  61 NW7       30.46F WCI  19
OTTUMWA        SUNNY     14   0  53 N10       30.48F WCI   1
ST LOUIS       MOSUNNY   34  21  59 NW13G18   30.46S WCI  25
$$


CITY           SKY/WX    TMP DP  RH WIND       PRES   REMARKS
TERRE HAUTE    FLURRIES  29  21  72 NW9       30.38S WCI  20
EVANSVILLE     CLOUDY    31  23  72 W8        30.45R WCI  23
INDIANAPOLIS   CLOUDY    28  19  69 NW17      30.32R WCI  16
LAFAYETTE      CLOUDY    27  19  72 NW14      30.35R WCI  16
MADISON        MOSUNNY   19   8  62 NW9       30.36S WCI   8
MILWAUKEE      FLURRIES  22  12  65 NW9       30.34R WCI  12
$$





USA.gov is the U.S. government's official web portal to all federal, state and local government web resources and services.